• In Hungary
  • List of Countries
  • For 7 days
  • Water Temperature
  • Satellite Maps
  • Weather Map
  • News
  • Weather Widgets
  • user-avatar
    Login

    Hourly Weather Greblevo

    Today, 16 November, Friday

    Time Temperature Precipitation Wind Pressure Humidity
    00:00 -1°C° 0 mm 1 mps 765 mmHg 76%
    01:00 -1°C° 0 mm 1 mps 765 mmHg 76%
    02:00 -1°C° 0 mm 1 mps 765 mmHg 76%
    03:00 -1°C° 0 mm 1 mps 766 mmHg 77%
    04:00 -1°C° 0 mm 1 mps 766 mmHg 78%
    05:00 -1°C° 0 mm 1 mps 766 mmHg 78%
    06:00 -1°C° 0 mm 1 mps 766 mmHg 79%
    07:00 -1°C° 0 mm 1 mps 767 mmHg 79%
    08:00 -1°C° 0 mm 1 mps 767 mmHg 79%
    09:00 -2°C° 0 mm 2 mps 767 mmHg 76%
    10:00 -1°C° 0 mm 2 mps 767 mmHg 72%
    11:00 +1°C° 0 mm 2 mps 767 mmHg 69%
    12:00 +1°C° 0 mm 2 mps 767 mmHg 70%
    13:00 +1°C° 0 mm 2 mps 767 mmHg 71%
    14:00 +1°C° 0 mm 2 mps 767 mmHg 72%
    15:00 -1°C° 0 mm 2 mps 767 mmHg 76%
    16:00 -2°C° 0 mm 2 mps 767 mmHg 79%
    17:00 -2°C° 0 mm 2 mps 767 mmHg 82%
    18:00 -2°C° 0 mm 2 mps 767 mmHg 84%
    19:00 -2°C° 0 mm 2 mps 767 mmHg 85%
    20:00 -2°C° 0 mm 2 mps 767 mmHg 86%
    21:00 -2°C° 0 mm 2 mps 766 mmHg 87%
    22:00 -2°C° 0 mm 2 mps 766 mmHg 87%
    23:00 -2°C° 0 mm 2 mps 766 mmHg 88%

    Tomorrow, 17 November, Saturday

    Time Temperature Precipitation Wind Pressure Humidity
    00:00 -2°C° 0 mm 3 mps 766 mmHg 88%
    01:00 -2°C° 0 mm 3 mps 766 mmHg 88%
    02:00 -2°C° 0 mm 3 mps 765 mmHg 88%
    03:00 -2°C° 0 mm 3 mps 765 mmHg 88%
    04:00 -2°C° 0 mm 3 mps 764 mmHg 88%
    05:00 -2°C° 0 mm 3 mps 764 mmHg 89%
    06:00 -2°C° 0 mm 3 mps 763 mmHg 88%
    07:00 -2°C° 0 mm 3 mps 763 mmHg 88%
    08:00 -3°C° 0 mm 4 mps 762 mmHg 87%
    09:00 -2°C° 0 mm 4 mps 761 mmHg 84%
    10:00 -1°C° 0 mm 4 mps 761 mmHg 80%
    11:00 -1°C° 0 mm 4 mps 760 mmHg 76%
    12:00 -1°C° 0.3 mm 4 mps 759 mmHg 78%
    13:00 -1°C° 0.3 mm 4 mps 759 mmHg 79%
    14:00 -1°C° 0.3 mm 4 mps 758 mmHg 81%
    15:00 -1°C° 0.6 mm 4 mps 757 mmHg 84%
    16:00 -1°C° 0.6 mm 4 mps 756 mmHg 86%
    17:00 -1°C° 0.6 mm 4 mps 755 mmHg 89%
    18:00 -1°C° 0.2 mm 4 mps 755 mmHg 89%
    19:00 -1°C° 0.2 mm 4 mps 754 mmHg 89%
    20:00 -1°C° 0.2 mm 4 mps 753 mmHg 89%
    21:00 -1°C° 0.1 mm 4 mps 752 mmHg 90%
    22:00 -1°C° 0.1 mm 4 mps 751 mmHg 91%
    23:00 -1°C° 0.1 mm 4 mps 750 mmHg 92%

    Day after tomorrow, 18 November, Sunday

    Time Temperature Precipitation Wind Pressure Humidity
    00:00 0°C° 0.1 mm 3 mps 750 mmHg 92%
    01:00 0°C° 0.1 mm 3 mps 749 mmHg 93%
    02:00 0°C° 0.1 mm 3 mps 749 mmHg 94%
    03:00 +1°C° 0.2 mm 2 mps 748 mmHg 95%
    04:00 +1°C° 0.2 mm 2 mps 748 mmHg 95%
    05:00 +1°C° 0.2 mm 2 mps 747 mmHg 96%
    06:00 +1°C° 0.1 mm 2 mps 747 mmHg 96%
    07:00 +2°C° 0.1 mm 1 mps 747 mmHg 97%
    08:00 +2°C° 0.1 mm 1 mps 746 mmHg 97%
    09:00 +2°C° 0.4 mm 1 mps 747 mmHg 97%
    10:00 +2°C° 0.4 mm 1 mps 747 mmHg 97%
    11:00 +2°C° 0.4 mm 1 mps 747 mmHg 97%
    12:00 +2°C° 0.3 mm 1 mps 747 mmHg 97%
    13:00 +2°C° 0.3 mm 1 mps 747 mmHg 97%
    14:00 +2°C° 0.3 mm 1 mps 748 mmHg 98%
    15:00 +2°C° 0.2 mm 1 mps 748 mmHg 97%
    16:00 +2°C° 0.2 mm 1 mps 748 mmHg 97%
    17:00 +1°C° 0.2 mm 2 mps 749 mmHg 97%
    18:00 +1°C° 0.3 mm 2 mps 749 mmHg 97%
    19:00 +1°C° 0.3 mm 2 mps 750 mmHg 97%
    20:00 +1°C° 0.3 mm 2 mps 750 mmHg 96%
    21:00 +1°C° 0.2 mm 2 mps 750 mmHg 96%
    22:00 0°C° 0.2 mm 3 mps 751 mmHg 96%
    23:00 0°C° 0.2 mm 3 mps 751 mmHg 95%

    19 November, Monday

    Time Temperature Precipitation Wind Pressure Humidity
    00:00 0°C° 0.3 mm 3 mps 752 mmHg 95%
    01:00 0°C° 0.3 mm 3 mps 752 mmHg 94%
    02:00 0°C° 0.3 mm 3 mps 752 mmHg 94%
    03:00 0°C° 0.3 mm 3 mps 753 mmHg 94%
    04:00 0°C° 0.3 mm 3 mps 753 mmHg 94%
    05:00 0°C° 0.3 mm 3 mps 753 mmHg 94%
    06:00 0°C° 0.3 mm 3 mps 754 mmHg 94%
    07:00 0°C° 0.3 mm 3 mps 754 mmHg 94%
    08:00 0°C° 0.3 mm 3 mps 755 mmHg 94%
    09:00 0°C° 0.3 mm 3 mps 755 mmHg 94%
    10:00 0°C° 0.3 mm 3 mps 756 mmHg 93%
    11:00 0°C° 0.3 mm 3 mps 756 mmHg 93%
    12:00 0°C° 0.1 mm 3 mps 757 mmHg 92%
    13:00 0°C° 0.1 mm 3 mps 757 mmHg 92%
    14:00 0°C° 0.1 mm 3 mps 757 mmHg 91%
    15:00 -1°C° 0 mm 3 mps 758 mmHg 91%
    16:00 -1°C° 0 mm 3 mps 758 mmHg 92%
    17:00 -1°C° 0 mm 3 mps 759 mmHg 92%
    18:00 -1°C° 0 mm 3 mps 759 mmHg 92%
    19:00 -2°C° 0 mm 2 mps 760 mmHg 92%
    20:00 -2°C° 0 mm 2 mps 760 mmHg 93%
    21:00 -3°C° 0 mm 2 mps 761 mmHg 93%
    22:00 -4°C° 0 mm 2 mps 761 mmHg 93%
    23:00 -5°C° 0 mm 2 mps 761 mmHg 93%

    20 November, Tuesday

    Time Temperature Precipitation Wind Pressure Humidity
    00:00 -5°C° 0 mm 2 mps 761 mmHg 92%
    01:00 -6°C° 0 mm 2 mps 762 mmHg 90%
    02:00 -4°C° 0 mm 1 mps 762 mmHg 88%
    03:00 -7°C° 0 mm 2 mps 762 mmHg 87%
    04:00 -7°C° 0 mm 2 mps 762 mmHg 86%
    05:00 -7°C° 0 mm 2 mps 761 mmHg 85%
    06:00 -6°C° 0 mm 1 mps 761 mmHg 84%
    07:00 -6°C° 0 mm 1 mps 761 mmHg 82%
    08:00 -6°C° 0 mm 1 mps 761 mmHg 81%
    09:00 -4°C° 0 mm 1 mps 761 mmHg 78%
    10:00 -3°C° 0 mm 1 mps 761 mmHg 75%
    11:00 -2°C° 0 mm 1 mps 761 mmHg 72%
    12:00 -1°C° 0 mm 1 mps 761 mmHg 75%
    13:00 -1°C° 0 mm 1 mps 761 mmHg 77%
    14:00 -1°C° 0 mm 1 mps 760 mmHg 79%
    15:00 -2°C° 0 mm 1 mps 760 mmHg 81%
    16:00 -3°C° 0 mm 1 mps 760 mmHg 82%
    17:00 -3°C° 0 mm 1 mps 760 mmHg 83%
    18:00 -4°C° 0 mm 1 mps 759 mmHg 83%
    19:00 -4°C° 0 mm 1 mps 759 mmHg 82%
    20:00 -4°C° 0 mm 1 mps 759 mmHg 82%
    21:00 -4°C° 0 mm 1 mps 759 mmHg 82%
    22:00 -4°C° 0 mm 1 mps 759 mmHg 82%
    23:00 -4°C° 0 mm 1 mps 759 mmHg 81%

    21 November, Wednesday

    Time Temperature Precipitation Wind Pressure Humidity
    00:00 -4°C° 0 mm 1 mps 758 mmHg 81%
    01:00 -4°C° 0 mm 1 mps 758 mmHg 81%
    02:00 -4°C° 0 mm 1 mps 758 mmHg 81%
    03:00 -4°C° 0 mm 1 mps 757 mmHg 81%
    04:00 -4°C° 0 mm 1 mps 757 mmHg 81%
    05:00 -6°C° 0 mm 1 mps 757 mmHg 80%
    06:00 -6°C° 0 mm 1 mps 757 mmHg 80%
    07:00 -6°C° 0 mm 1 mps 757 mmHg 80%
    08:00 -6°C° 0 mm 1 mps 757 mmHg 80%
    09:00 -4°C° 0 mm 1 mps 756 mmHg 78%
    10:00 -3°C° 0 mm 1 mps 756 mmHg 76%
    11:00 -2°C° 0 mm 1 mps 756 mmHg 74%
    12:00 -2°C° 0 mm 1 mps 756 mmHg 76%
    13:00 -2°C° 0 mm 1 mps 755 mmHg 77%
    14:00 -2°C° 0 mm 1 mps 755 mmHg 79%
    15:00 -3°C° 0 mm 1 mps 755 mmHg 80%
    16:00 -3°C° 0 mm 1 mps 755 mmHg 81%
    17:00 -4°C° 0 mm 1 mps 754 mmHg 83%
    18:00 -4°C° 0 mm 1 mps 754 mmHg 83%
    19:00 -4°C° 0 mm 1 mps 754 mmHg 83%
    20:00 -7°C° 0 mm 2 mps 754 mmHg 83%
    21:00 -7°C° 0 mm 2 mps 754 mmHg 83%
    22:00 -7°C° 0 mm 2 mps 754 mmHg 82%
    23:00 -7°C° 0 mm 2 mps 754 mmHg 82%
    Show more